Regional Weather Roundup
Issued by NWS

Home | Current Version | Previous Version | Graphics & Text | Print | Product List | Glossary On
Versions: 1 2 3 4 5 6 7 8 9 10 11 12 13 14 15 16 17 18 19 20 21 22 23 24 25 26 27 28 29 30 31 32 33 34 35 36 37 38 39 40 41 42 43 44 45 46 47 48 49 50
000
ASUS43 KBIS 242110
RWRND

NORTH DAKOTA REGIONAL WEATHER ROUNDUP
NATIONAL WEATHER SERVICE BISMARCK ND
400 PM CDT WED AUG 24 2016

NOTE: "FAIR" INDICATES FEW OR NO CLOUDS BELOW 12,000 FEET WITH NO
SIGNIFICANT WEATHER AND/OR OBSTRUCTIONS TO VISIBILITY.


NDZ001>003-009>011-017-242200-
NORTHWEST NORTH DAKOTA

CITY           SKY/WX    TMP DP  RH WIND       PRES   REMARKS
WILLISTON      CLOUDY    63  48  58 W20G31    30.04S
MINOT          CLOUDY    69  49  48 W17G32    29.93R
MINOT AFB      MOSUNNY   68  50  52 W26G36    29.91R
$$

NDZ018>021-031>035-040>046-242200-
SOUTHWEST NORTH DAKOTA

CITY           SKY/WX    TMP DP  RH WIND       PRES   REMARKS
BISMARCK       PTSUNNY   73  47  39 W17G24    30.01S
DICKINSON      PTSUNNY   68  42  38 NW29G35   30.06R
GARRISON         N/A     69  49  48 W21G33    29.99R
HETTINGER ARPT SUNNY     74  41  30 W24G38    30.09S
$$

NDZ004>008-012>016-024-026-027-054-242200-
NORTHEAST NORTH DAKOTA

CITY           SKY/WX    TMP DP  RH WIND       PRES   REMARKS
GRAND FORKS    PTSUNNY   73  53  49 W16G23    29.88S
GRND FRKS AFB  PTSUNNY   74  52  46 W16G23    29.90R
DEVILS LAKE    CLOUDY    68  51  54 W15G24    29.92R HAZE
$$

NDZ022-023-025-028>030-036>039-047>053-242200-
SOUTHEAST NORTH DAKOTA

CITY           SKY/WX    TMP DP  RH WIND       PRES   REMARKS
FARGO          MOSUNNY   76  53  44 W20G25    29.93S
JAMESTOWN      PTSUNNY   70  51  51 W23G30    29.97R
$$





USA.gov is the U.S. government's official web portal to all federal, state and local government web resources and services.